"Pseudo-MPEC" for C15C4C2

Created 2019 Oct 11 13:07:15 UT using Find_Orb

Click here for an explanation of pseudo-MPECs

 
 Astrometry: 
     C15C4C2  C2019 10 08PvXQFwAstrometry7Ej8R/6dn_tRMredacted;p)H`_WQ-Ho`Zy\F51
     C15C4C2  C2019 10 088*\5B'Z44C$x7cMC7wL_]ep4sclick]Yy7p7AR'=4;QH^UO?Mr0%F51
     C15C4C2  C2019 10 08yIbd?Q]7hq6%g(Gscahere$pc%dkxkc.p13'*B,52fV:g*W+forkF51
     C15C4C2  C2019 10 085!UQ'sv%d:h5Vy]*@k8lH-explanationY,dewT@,+G%\'DvI3RHF51
     C15C4C2  C2019 10 09.33477 03 07 32.81 +27 32 50.4    ~A98q 21.5 GVNEOCPG96
     C15C4C2  C2019 10 09.33954 03 07 34.96 +27 32 08.0    ~A98q 21.1 GVNEOCPG96
     C15C4C2  C2019 10 09.34429 03 07 37.00 +27 31 26.9    ~A98q 21.2 GVNEOCPG96
     C15C4C2  C2019 10 09.34903 03 07 39.08 +27 30 45.4    ~A98q 21.0 GVNEOCPG96
     C15C4C2  C2019 10 09.37154803 07 48.21 +27 27 21.3    ~A99q 20.6 GVNEOCPH01
     C15C4C2  C2019 10 09.38021903 07 52.00 +27 26 03.9    ~A99q 21.5 GVNEOCPH01
     C15C4C2  C2019 10 09.38545803 07 54.29 +27 25 17.0    ~A99q 20.3 GVNEOCPH01
     C15C4C2  C2019 10 09.39186603 07 57.10 +27 24 19.4    ~A99q 21.1 GVNEOCPH01
     C15C4C2  C2019 10 09.44052 03 08 19.13 +27 17 04.4    ~A9BM 20.6 GVNEOCPI52
     C15C4C2  C2019 10 09.44386 03 08 20.63 +27 16 33.7    ~A9BM       VNEOCPI52
     C15C4C2  C2019 10 09.44719 03 08 21.97 +27 15 59.8    ~A9BM       VNEOCPI52
     C15C4C2  C2019 10 09.45052 03 08 23.54 +27 15 32.6    ~A9BM       VNEOCPI52
     C15C4C2  C2019 10 10.27217 03 15 40.62 +25 06 43.3    ~AA7M       VNEOCPI52
     C15C4C2  C2019 10 10.27856 03 15 43.55 +25 05 40.9    ~AA7M       VNEOCPI52
     C15C4C2  C2019 10 10.28106 03 15 44.79 +25 05 18.4    ~AA7M 21.2 GVNEOCPI52
     C15C4C2  C2019 10 10.28356 03 15 45.94 +25 04 55.3    ~AA7M 20.3 GVNEOCPI52
     C15C4C2 IC2019 10 105j,/F257%(92;EPw*G]jHcL)aHRtU/D;jNS(-5A?QAo1r2Uj5rpYL01
     C15C4C2 KC2019 10 10qSrb=AZ-IhiV#eu.,E@Xy,3CA,9`?W1s)k5F2J.68wlobB$Hgxf^L01
     C15C4C2 pC2019 10 10ncT@s3QFB6c.`KDxH7Ge3%3TW:@b]B_b5rm\4iLQQ2vd%g1jk#THL01
     C15C4C2  C2019 10 11.30299 03 24 45.70 +22 10 19.9    ~AB7q 21.2 GVNEOCPI52
     C15C4C2  C2019 10 11.30581 03 24 47.08 +22 09 49.1    ~AB7q 20.2 GVNEOCPI52
     C15C4C2  C2019 10 11.31071 03 24 49.41 +22 08 58.7    ~AB7q       VNEOCPI52

Station data:
(F51) Pan-STARRS 1, Haleakala  (N20.707235 W156.255910)  US/Hawaii.
   Observers N. Primak, A. Schultz, S. Watters, J. Thiel, T. Goggia. Measurer
   PS1 Science Consortium. 1.8-m Ritchey-Chrétien + CCD.
(G96) Mt. Lemmon Survey  (N32.442754 W110.788720)  US/Arizona.  Observers T.
   A. Pruyne, B. M. Africano, E. J. Christensen, G. A. Farneth, D. C. Fuls,
   A. R. Gibbs, A. D. Grauer, H. Groeller, J. A. Johnson, R. A. Kowalski, S.
   M. Larson, G. J. Leonard, D. Rankin, R. L. Seaman, F. C. Shelly. 1.5-m
   reflector + 10K CCD.
(H01) Magdalena Ridge Observatory, Socorro  (N33.984833 W107.189333)  US/New
   Mexico.  Observers W. H. Ryan, E. V. Ryan. Measurer W. H. Ryan. 2.4-m
   f/8.9 reflector + CCD.
(I52) Steward Observatory, Mt. Lemmon Station  (N32.442547 W110.788920)
   US/Arizona.  Observers T. A. Pruyne, B. M. Africano, E. J. Christensen, G.
   A. Farneth, D. C. Fuls, A. R. Gibbs, A. D. Grauer, H. Groeller, J. A.
   Johnson, R. A. Kowalski, S. M. Larson, G. J. Leonard, D. Rankin, R. L.
   Seaman, F. C. Shelly. 1.0-m reflector + CCD.
(L01) Višnjan Observatory, Tičan  (N45.290900 E13.749300)  Croatia.
   Observers K. Korlević, E. Pettarin. Measurer E. Pettarin. 1.0-m f/2.9
   reflector + CCD.

Orbital elements:  C15C4C2
   Perihelion 2019 Dec 12.367615 +/- 0.0487 TT =  8:49:21 (JD 2458829.867615)
Epoch 2019 Oct 11.0 TT = JDT 2458767.5   Earth MOID: 0.0309   AutoNEOCP
M 306.61039253 +/- 0.07             (J2000 ecliptic)
n   0.85604696 +/- 0.000483         Peri.  243.44659 +/- 0.047
a   1.09851077 +/- 0.000413         Node   199.79700 +/- 0.0038
e   0.1129780 +/- 0.000332          Incl.    9.04440 +/- 0.025
P   1.15/420.53d           H 26.5   G  0.15   U  7.6  
q 0.97440311 +/- 5.52e-5    Q 1.22261843 +/- 0.000822
From 26 observations 2019 Oct. 8-11; mean residual 0".65
Residuals in arcseconds: 
191008 F51  .07+  .66-    191009 H01  .19+  .22+    191010 I52  .63+  .34+    
191008 F51  .41-  .35+    191009 H01  .17+  .24+    191010 I52  .44+  1.0+    
191008 F51  .16-  .28-    191009 H01  .25+  .17+    191010 L01  .75-  1.0-    
191008 F51  .18-  .04+    191009 I52  .37+  .43+    191010 L01  .58-  .20-    
191009 G96  .29-  .44+    191009 I52  .74+  .28+    191010 L01  .30-  .02-    
191009 G96  .42+  .18-    191009 I52  1.0-  3.1-    191011 I52  .10-  .49+    
191009 G96  .18-  .41+    191009 I52  .32+  .22+    191011 I52  .51+  .54-    
191009 G96  .15-  .59+    191010 I52  .45+  .82+    191011 I52  .68+  .85+    
191009 H01  .22+  .19+    191010 I52  .36-  .93-    

Ephemerides (geocentric):
Date (UTC) HH   RA              Dec         delta   r     elong  mag " sig PA
---- -- -- --  -------------   -----------  ------ ------ -----  --- ---- ---
2019 10 11 13  03 26 47.653   +21 27 48.41  .04375 1.0336 142.8 21.2 .376 142
2019 10 11 14  03 27 10.191   +21 20 09.53  .04368 1.0335 142.8 21.2 .388 143
2019 10 11 15  03 27 32.751   +21 12 28.96  .04361 1.0334 142.8 21.2 .400 143
2019 10 11 16  03 27 55.335   +21 04 46.72  .04354 1.0333 142.8 21.2 .412 143
2019 10 11 17  03 28 17.941   +20 57 02.79  .04347 1.0333 142.8 21.2 .425 144
2019 10 11 18  03 28 40.570   +20 49 17.19  .04341 1.0332 142.8 21.2 .438 144
2019 10 11 19  03 29 03.222   +20 41 29.91  .04334 1.0331 142.8 21.2 .451 144
2019 10 11 20  03 29 25.895   +20 33 40.94  .04327 1.0331 142.8 21.2 .464 144
2019 10 11 21  03 29 48.591   +20 25 50.31  .04320 1.0330 142.8 21.2 .478 145
2019 10 11 22  03 30 11.310   +20 17 57.99  .04314 1.0329 142.8 21.2 .492 145
2019 10 11 23  03 30 34.050   +20 10 04.00  .04307 1.0329 142.8 21.2 .507 145
2019 10 12 00  03 30 56.812   +20 02 08.34  .04301 1.0328 142.8 21.2 .521 145
2019 10 12 01  03 31 19.597   +19 54 11.01  .04294 1.0327 142.8 21.2 .536 145
2019 10 12 02  03 31 42.403   +19 46 12.01  .04288 1.0326 142.7 21.2 .551 146
2019 10 12 03  03 32 05.230   +19 38 11.34  .04281 1.0326 142.7 21.2 .567 146
2019 10 12 04  03 32 28.080   +19 30 09.01  .04275 1.0325 142.7 21.2 .583 146
2019 10 12 05  03 32 50.950   +19 22 05.01  .04268 1.0324 142.7 21.2 .599 146
2019 10 12 06  03 33 13.842   +19 13 59.35  .04262 1.0324 142.7 21.2 .615 146
2019 10 12 07  03 33 36.756   +19 05 52.04  .04256 1.0323 142.7 21.2 .632 146
2019 10 12 08  03 33 59.690   +18 57 43.06  .04249 1.0322 142.7 21.2 .649 147
2019 10 12 09  03 34 22.646   +18 49 32.43  .04243 1.0322 142.7 21.2 .666 147
2019 10 12 10  03 34 45.622   +18 41 20.15  .04237 1.0321 142.6 21.2 .684 147
2019 10 12 11  03 35 08.620   +18 33 06.22  .04231 1.0320 142.6 21.2 .702 147
2019 10 12 12  03 35 31.638   +18 24 50.65  .04224 1.0320 142.6 21.2 .720 147
2019 10 12 13  03 35 54.677   +18 16 33.43  .04218 1.0319 142.6 21.2 .739 147
2019 10 12 14  03 36 17.736   +18 08 14.58  .04212 1.0318 142.6 21.2 .757 147
2019 10 12 15  03 36 40.815   +17 59 54.08  .04206 1.0317 142.5 21.2 .777 147
2019 10 12 16  03 37 03.915   +17 51 31.96  .04200 1.0317 142.5 21.2 .796 148
2019 10 12 17  03 37 27.035   +17 43 08.20  .04194 1.0316 142.5 21.2 .816 148
2019 10 12 18  03 37 50.175   +17 34 42.83  .04188 1.0315 142.5 21.2 .836 148
2019 10 12 19  03 38 13.335   +17 26 15.82  .04182 1.0315 142.5 21.2 .856 148
2019 10 12 20  03 38 36.515   +17 17 47.21  .04177 1.0314 142.4 21.2 .877 148
2019 10 12 21  03 38 59.715   +17 09 16.98  .04171 1.0313 142.4 21.2 .898 148
2019 10 12 22  03 39 22.934   +17 00 45.13  .04165 1.0313 142.4 21.2 .919 148
2019 10 12 23  03 39 46.173   +16 52 11.69  .04159 1.0312 142.4 21.1 .941 148
2019 10 13 00  03 40 09.431   +16 43 36.65  .04154 1.0311 142.3 21.1 .963 148
2019 10 13 01  03 40 32.708   +16 35 00.01  .04148 1.0311 142.3 21.1 .985 148
2019 10 13 02  03 40 56.004   +16 26 21.77  .04142 1.0310 142.3 21.1 1.01 149
2019 10 13 03  03 41 19.319   +16 17 41.96  .04137 1.0309 142.3 21.1 1.03 149
2019 10 13 04  03 41 42.654   +16 09 00.56  .04131 1.0308 142.2 21.1 1.05 149
2019 10 13 05  03 42 06.007   +16 00 17.59  .04126 1.0308 142.2 21.1 1.08 149
2019 10 13 06  03 42 29.378   +15 51 33.05  .04120 1.0307 142.2 21.1 1.10 149
2019 10 13 07  03 42 52.768   +15 42 46.94  .04115 1.0306 142.1 21.1 1.12 149
2019 10 13 08  03 43 16.177   +15 33 59.28  .04109 1.0306 142.1 21.1 1.15 149
2019 10 13 09  03 43 39.604   +15 25 10.06  .04104 1.0305 142.1 21.1 1.17 149
2019 10 13 10  03 44 03.049   +15 16 19.30  .04099 1.0304 142.0 21.1 1.20 149
2019 10 13 11  03 44 26.512   +15 07 27.00  .04093 1.0304 142.0 21.1 1.22 149
2019 10 13 12  03 44 49.993   +14 58 33.16  .04088 1.0303 142.0 21.1 1.25 149